sat.trackr.live / text

‹ back to catalog

STARLINK-1184

NORAD 45098 · 2020-006BG

PAYLOAD ACTIVE UNKNOWN

§ Identity

Operator
Country
US
Launch date
2020-01-29
Launch site
AFETR
Launch vehicle
Mass (kg)
RCS (m²)

Purposes: comms

External: N2YO · Heavens-Above · Gunter

§ Orbital elements

Epoch: 2026-05-25T00:13:17.426208Z

Period
95.14 min
Inclination
53.0524°
Eccentricity
0.0003798
Mean motion
15.13611299 rev/d
Perigee alt
522.6 km
Apogee alt
527.8 km
Semi-major
6,903.3 km
B*
1.0590e-3
RAAN
259.7791°
Arg perigee
5.4581°
Mean anomaly
354.6452°
Rev number
34,858

§ Raw data

STARLINK-11841 45098U 20006BG  26145.00922947  .00018991  00000+0  10590-2 0  99992 45098  53.0524 259.7791 0003798   5.4581 354.6452 15.13611299348582

JSON: /api/v1/satellites/45098 · /tle

For live sub-satellite position, see the globe view (requires WebGL).

§ Visibility from observer

Set your observer location to see the next 7 days of passes ≥ 10°. The values pass through the URL so the page stays shareable.

No JS? Fill the form by hand. The geolocation button needs JavaScript.